Flag for Saudi Arabia Weather past 2 weeks in Makkah, Saudi Arabia

Now
90 °F

Passing clouds.


Feels Like: 100 °F
Forecast: 81 / 103 °F
Wind: 2 mph from Northwest

Location: Mecca Airport

Current Time: Sep 2, 2014 at 9:06:14 AM

Latest Report: Sep 2, 2014 at 8:00 AM


Visibility: N/A

Pressure: 29.62 "Hg

Humidity: 63%

Dew point: 75 °F

Location of MakkahLocation

Historic Weather in Makkah — Graph

°F

Makkah temperature yesterday

Maximum temperature yesterday: 104 °F (at 2:00 PM)
Minimum temperature yesterday: 88 °F (at 5:00 AM)
Average temperature yesterday: 96 °F

Past Weeks' High & Low Weather Summary

 TemperatureHumidityPressure
High117 °F (Aug 26, 1:00 PM)84% (Aug 23, 8:00 AM)29.77 "Hg (Aug 23, 8:00 AM)
Low86 °F (Aug 18, 7:00 AM)14% (Aug 18, 1:00 PM)29.56 "Hg (Aug 21, 4:00 PM)
Average97 °F49%29.64 "Hg
* Reported Aug 18 7:00 AM — Sep 2 7:00 AM, Makkah, Weather by CustomWeather, © 2014

Note: Actual official high and low records may vary slightly from our data, if they occured in-between our weather recording intervals... More about our weather records

Advertising

Makkah weather history for previous 24 hours

 ConditionsComfort  
Time TempWeatherWind HumidityBarometerVisibility
7:00 AM
Sep 2
90 °FScattered clouds.No wind67%29.62 "HgN/A
6:00 AM91 °FPassing clouds.No wind67%29.62 "HgN/A
5:00 AM93 °FClear.No wind59%29.59 "Hg10 mi
4:00 AM93 °FClear.No wind59%29.59 "Hg10 mi
3:00 AM93 °FPassing clouds.No wind63%29.59 "HgN/A
2:00 AM93 °FClear.No wind63%29.56 "Hg10 mi
1:00 AM93 °FClear.No wind63%29.59 "Hg10 mi
12:00 AM93 °FClear.No wind63%29.62 "Hg10 mi
11:00 PM
Sep 1
97 °FPassing clouds.2 mph53%29.59 "Hg5 mi
10:00 PM100 °FPassing clouds.No wind31%29.59 "Hg4 mi
9:00 PM97 °FPassing clouds.5 mph34%29.62 "Hg5 mi
8:00 PM97 °FPassing clouds.3 mph53%29.65 "HgN/A
7:00 PM99 °FPassing clouds.5 mph50%29.59 "HgN/A
6:00 PM100 °FScattered clouds.3 mph50%29.62 "HgN/A
5:00 PM102 °FPassing clouds.5 mph48%29.59 "HgN/A
4:00 PM104 °FScattered clouds.3 mph45%29.59 "HgN/A
3:00 PM104 °FScattered clouds.3 mph45%29.62 "HgN/A
2:00 PM104 °FPassing clouds.2 mph45%29.65 "HgN/A
1:00 PM102 °FPassing clouds.5 mph48%29.65 "HgN/A
12:00 PM100 °FPassing clouds.7 mph50%29.68 "HgN/A
11:00 AM97 °FSunny.7 mph60%29.68 "Hg10 mi
10:00 AM95 °FSunny.5 mph63%29.68 "Hg10 mi
9:00 AM91 °FSunny.No wind75%29.68 "Hg10 mi
Weather by CustomWeather, © 2014

See weather overviewHow to use our weather pages